KS5S Weather Reports


Display with metric or nautical units.
time (UTC)temp
F
wind
direction
speed
MPH
gust
MPH
rain 1hr
in
rain 24hr
in
rain mn
in
humidity
%
barometer
mb
20260502130619 56 316 3.0 4.0 0.00 0.00 0.00 82 1019.4
20260502130116 55 330 0.0 3.0 0.00 0.00 0.00 84 1019.3
20260502123602 52 320 3.0 5.0 0.00 0.00 0.00 88 1019.0
20260502123058 51 297 4.0 5.0 0.00 0.00 0.00 89 1019.1
20260502122555 52 314 2.0 5.0 0.00 0.00 0.00 88 1018.8
20260502122052 52 257 0.0 3.0 0.00 0.00 0.00 87 1018.9
20260502121549 51 55 0.0 1.0 0.00 0.00 0.00 88 1018.9
20260502121047 51 169 0.0 3.0 0.00 0.00 0.00 89 1018.9
20260502120543 51 269 0.0 3.0 0.00 0.00 0.00 89 1019.1
20260502115538 50 214 0.0 2.0 0.00 0.00 0.00 90 1018.3
20260502115033 50 248 0.0 2.0 0.00 0.00 0.00 91 1018.3
20260502114530 50 186 2.0 2.0 0.00 0.00 0.00 91 1018.3
20260502114027 50 205 2.0 2.0 0.00 0.00 0.00 91 1018.3
20260502113525 50 187 1.0 3.0 0.00 0.00 0.00 89 1018.4
20260502113024 51 229 0.0 3.0 0.00 0.00 0.00 88 1018.2
20260502112521 51 246 0.0 2.0 0.00 0.00 0.00 88 1017.9
20260502112018 51 300 0.0 2.0 0.00 0.00 0.00 87 1017.9
20260502111515 52 292 2.0 3.0 0.00 0.00 0.00 87 1018.0
20260502111013 52 303 0.0 3.0 0.00 0.00 0.00 87 1017.7
20260502110510 52 283 1.0 2.0 0.00 0.00 0.00 87 1017.7
20260502110008 52 253 1.0 3.0 0.00 0.00 0.00 86 1017.6
20260502105505 52 255 2.0 3.0 0.00 0.00 0.00 87 1017.4
20260502105002 51 286 1.0 3.0 0.00 0.00 0.00 89 1017.4
20260502104459 51 295 0.0 2.0 0.00 0.00 0.00 90 1017.6
20260502103956 51 314 2.0 3.0 0.00 0.00 0.00 89 1017.5
20260502103454 51 299 0.0 3.0 0.00 0.00 0.00 90 1017.5
20260502102951 51 299 0.0 2.0 0.00 0.00 0.00 89 1017.5
20260502102448 52 352 0.0 3.0 0.00 0.00 0.00 86 1017.2
20260502101944 52 287 1.0 3.0 0.00 0.00 0.00 86 1017.4
20260502101443 52 319 1.0 2.0 0.00 0.00 0.00 87 1017.2
20260502100941 51 284 1.0 2.0 0.00 0.00 0.00 89 1017.2
20260502100440 51 76 0.0 1.0 0.00 0.00 0.00 89 1017.3
20260502091414 51 283 3.0 4.0 0.00 0.00 0.00 90 1017.3
20260502090911 51 278 2.0 3.0 0.00 0.00 0.00 91 1017.2
20260502090408 50 269 1.0 3.0 0.00 0.00 0.00 93 1017.0
20260502071303 51 325 0.0 2.0 0.00 0.00 0.00 95 1017.4
20260502070801 51 314 0.0 2.0 0.00 0.00 0.00 95 1017.4
20260502070258 51 326 0.0 1.0 0.00 0.00 0.00 94 1017.2
20260502065757 52 66 0.0 1.0 0.00 0.00 0.00 94 1017.4
20260502065255 52 315 0.0 1.0 0.00 0.00 0.00 93 1017.5
20260502064753 52 177 0.0 3.0 0.00 0.00 0.00 93 1017.0
20260502064250 52 243 0.0 2.0 0.00 0.00 0.00 92 1017.2
20260502063747 53 335 1.0 2.0 0.00 0.00 0.00 93 1017.4
20260502063245 53 19 0.0 2.0 0.00 0.00 0.00 92 1017.2
20260502062742 53 335 0.0 2.0 0.00 0.00 0.00 91 1017.3
20260502062239 53 345 0.0 2.0 0.00 0.00 0.00 91 1017.5
20260502061738 53 348 0.0 1.0 0.00 0.00 0.00 92 1017.2
20260502061235 53 5 1.0 2.0 0.00 0.00 0.00 91 1017.4
20260502060730 53 77 1.0 2.0 0.00 0.00 0.00 91 1017.3
20260502060226 53 31 1.0 2.0 0.00 0.00 0.00 91 1017.3
20260502055724 53 88 2.0 2.0 0.00 0.00 0.00 90 1017.4
20260502055221 54 95 0.0 2.0 0.00 0.00 0.00 89 1017.3
20260502054715 54 305 0.0 2.0 0.00 0.00 0.00 89 1017.4
20260502054212 55 301 2.0 3.0 0.00 0.00 0.00 88 1017.5
20260502053710 54 299 3.0 4.0 0.00 0.00 0.00 90 1017.7
20260502053206 54 298 2.0 3.0 0.00 0.00 0.00 90 1017.4
20260502052704 54 293 2.0 4.0 0.00 0.00 0.00 93 1017.6
20260502052202 54 321 2.0 3.0 0.00 0.00 0.00 92 1017.5
20260502051655 53 336 0.0 2.0 0.00 0.00 0.00 94 1017.3
20260502051152 53 0 0.0 1.0 0.00 0.00 0.00 93 1017.1
20260502050648 53 326 0.0 1.0 0.00 0.00 0.00 92 1017.3
20260502050140 54 92 2.0 3.0 0.00 0.00 0.00 91 1017.1
20260502045636 54 99 2.0 2.0 0.00 0.02 0.02 91 1017.2
20260502045134 54 34 0.0 2.0 0.00 0.02 0.02 90 1017.0
20260502044630 55 55 0.0 0.0 0.00 0.02 0.02 89 1017.1
20260502044126 55 55 0.0 0.0 0.00 0.02 0.02 88 1017.2
20260502043624 55 66 0.0 1.0 0.00 0.02 0.02 86 1017.2
20260502043121 55 41 1.0 2.0 0.00 0.02 0.02 85 1017.1
20260502042615 55 293 0.0 1.0 0.00 0.02 0.02 87 1017.4
20260502042113 54 308 0.0 1.0 0.00 0.02 0.02 90 1017.1
20260502041610 54 29 0.0 0.0 0.00 0.02 0.02 90 1017.1
20260502041107 54 29 0.0 1.0 0.00 0.02 0.02 90 1017.0
20260502040604 54 32 0.0 1.0 0.00 0.02 0.02 90 1017.2
20260502035557 55 320 1.0 2.0 0.00 0.02 0.02 88 1017.0
20260502035054 56 326 0.0 2.0 0.00 0.02 0.02 85 1016.9
20260502034552 56 339 0.0 2.0 0.00 0.02 0.02 84 1017.0
20260502034050 55 305 1.0 2.0 0.00 0.02 0.02 88 1017.0
20260502033548 55 13 1.0 2.0 0.00 0.02 0.02 87 1016.9
20260502033045 55 352 0.0 1.0 0.00 0.02 0.02 87 1016.6
20260502032541 56 69 0.0 3.0 0.00 0.02 0.02 85 1016.8
20260502032038 57 101 2.0 3.0 0.00 0.02 0.02 83 1016.8
20260502031536 56 53 0.0 2.0 0.00 0.02 0.02 82 1016.7
20260502031033 57 11 0.0 1.0 0.00 0.02 0.02 82 1016.8
20260502030532 57 309 0.0 1.0 0.00 0.02 0.02 83 1016.8
20260502030030 57 316 0.0 1.0 0.00 0.02 0.02 84 1016.8
20260502025527 57 329 0.0 2.0 0.00 0.02 0.02 82 1016.6
20260502025025 58 22 0.0 1.0 0.00 0.02 0.02 81 1016.7
20260502024522 58 329 1.0 2.0 0.00 0.02 0.02 81 1016.5
20260502024020 58 43 0.0 2.0 0.00 0.02 0.02 78 1016.5
20260502023517 59 8 1.0 3.0 0.00 0.02 0.02 77 1016.3
20260502023015 59 6 1.0 4.0 0.00 0.02 0.02 77 1016.4
20260502022511 59 31 2.0 3.0 0.00 0.02 0.02 76 1016.3
20260502022009 59 359 2.0 4.0 0.00 0.02 0.02 75 1016.1
20260502021506 59 17 2.0 3.0 0.00 0.02 0.02 74 1016.0
20260502021003 60 19 3.0 4.0 0.00 0.02 0.02 73 1016.1
20260502020501 60 19 2.0 3.0 0.00 0.02 0.02 74 1016.1
20260502015957 60 42 1.0 4.0 0.00 0.02 0.02 73 1015.9
20260502015455 60 34 3.0 5.0 0.00 0.02 0.02 73 1015.8
20260502014951 60 64 3.0 5.0 0.00 0.02 0.02 72 1015.7
20260502014447 60 71 2.0 6.0 0.00 0.02 0.02 72 1015.5
20260502013944 60 84 4.0 7.0 0.00 0.02 0.02 71 1015.1
20260502013440 60 42 3.0 7.0 0.00 0.02 0.02 72 1015.4
20260502012937 60 82 6.0 7.0 0.00 0.02 0.02 72 1014.9
20260502012434 60 91 7.0 7.0 0.00 0.02 0.02 72 1014.9
20260502011932 60 63 5.0 8.0 0.00 0.02 0.02 71 1014.8
20260502011428 60 80 4.0 7.0 0.00 0.02 0.02 71 1014.9
20260502010925 60 46 2.0 8.0 0.00 0.02 0.02 71 1014.9
20260502010421 60 55 5.0 10.0 0.00 0.02 0.02 70 1014.8
20260502005918 60 49 9.0 12.0 0.00 0.02 0.02 70 1014.6
20260502005416 60 81 4.0 9.0 0.00 0.02 0.02 71 1014.7
20260502004914 60 45 5.0 8.0 0.00 0.02 0.02 70 1014.4
20260502004409 61 74 6.0 11.0 0.00 0.02 0.02 69 1014.4
20260502003907 61 33 5.0 11.0 0.00 0.02 0.02 70 1014.2
20260502003404 61 46 6.0 7.0 0.00 0.02 0.02 69 1014.1
20260502002900 61 87 10.0 14.0 0.00 0.02 0.02 67 1014.0
20260502002357 61 83 12.0 13.0 0.00 0.02 0.02 67 1014.2
20260502001854 61 51 7.0 17.0 0.00 0.02 0.02 66 1014.0
20260502001352 62 38 9.0 16.0 0.00 0.02 0.02 66 1013.7
20260502000849 62 52 14.0 17.0 0.00 0.02 0.02 65 1013.7
20260502000348 62 34 17.0 17.0 0.00 0.02 0.02 67 1013.8
20260501235844 62 54 7.0 13.0 0.00 0.02 0.02 68 1013.8
20260501235339 62 56 14.0 14.0 0.00 0.02 0.02 68 1013.8
20260501234835 62 66 10.0 14.0 0.00 0.02 0.02 68 1013.5
20260501234332 63 31 5.0 10.0 0.00 0.02 0.02 69 1013.5
20260501233831 63 74 9.0 13.0 0.00 0.02 0.02 70 1013.5
20260501233328 63 48 7.0 12.0 0.00 0.02 0.02 69 1013.4
20260501232823 63 42 7.0 11.0 0.00 0.02 0.02 70 1013.6
20260501232321 63 61 4.0 11.0 0.00 0.02 0.02 70 1013.3
20260501231818 63 86 4.0 11.0 0.00 0.02 0.02 69 1013.6
20260501231316 63 58 5.0 9.0 0.00 0.02 0.02 69 1013.6
20260501230814 63 55 5.0 11.0 0.00 0.02 0.02 69 1013.6
20260501230313 63 46 6.0 13.0 0.00 0.02 0.02 67 1013.3
20260501225810 63 24 8.0 13.0 0.00 0.02 0.02 67 1013.3
20260501225308 63 27 10.0 10.0 0.00 0.02 0.02 67 1013.4
20260501224803 63 40 6.0 12.0 0.00 0.02 0.02 67 1013.6
20260501224300 63 22 5.0 9.0 0.00 0.02 0.02 68 1013.4
20260501223756 63 23 4.0 9.0 0.00 0.02 0.02 68 1013.2
20260501223253 63 15 4.0 14.0 0.00 0.02 0.02 65 1013.4
20260501222749 63 40 5.0 13.0 0.00 0.02 0.02 66 1013.3
20260501222247 63 26 3.0 7.0 0.00 0.02 0.02 67 1013.4
20260501221744 63 21 4.0 13.0 0.00 0.02 0.02 65 1013.3
20260501221241 63 14 6.0 13.0 0.00 0.02 0.02 65 1013.1
20260501220738 63 7 2.0 10.0 0.00 0.02 0.02 67 1013.2
20260501220235 63 13 4.0 11.0 0.00 0.02 0.02 65 1013.4
20260501215732 63 18 3.0 10.0 0.00 0.02 0.02 67 1013.2
20260501215222 64 28 6.0 12.0 0.00 0.02 0.02 65 1013.4
20260501214717 64 30 12.0 12.0 0.00 0.02 0.02 65 1013.5
20260501214214 64 0 10.0 12.0 0.00 0.02 0.02 66 1013.2
20260501213709 64 40 5.0 14.0 0.00 0.02 0.02 64 1013.2
20260501213205 64 6 5.0 11.0 0.00 0.02 0.02 67 1013.5
20260501212702 64 34 7.0 14.0 0.00 0.02 0.02 65 1013.4
20260501212158 63 16 3.0 12.0 0.00 0.02 0.02 68 1013.4
20260501211655 63 23 6.0 9.0 0.00 0.02 0.02 65 1013.3
20260501211153 63 12 8.0 11.0 0.00 0.02 0.02 64 1013.5
20260501210649 63 26 9.0 11.0 0.00 0.02 0.02 64 1013.5
20260501210146 63 38 5.0 14.0 0.00 0.02 0.02 65 1013.6
20260501205642 63 60 3.0 8.0 0.00 0.02 0.02 66 1013.4
20260501205140 63 35 6.0 12.0 0.00 0.02 0.02 65 1013.5
20260501204636 63 46 6.0 13.0 0.00 0.02 0.02 65 1013.7
20260501204132 63 51 7.0 12.0 0.00 0.02 0.02 64 1013.9
20260501203629 63 22 7.0 11.0 0.00 0.02 0.02 65 1014.0
20260501203127 63 4 4.0 7.0 0.00 0.02 0.02 66 1013.8
20260501202624 62 39 6.0 10.0 0.00 0.02 0.02 66 1014.0
20260501202120 62 11 3.0 6.0 0.00 0.02 0.02 67 1014.1
20260501201618 62 28 3.0 6.0 0.00 0.02 0.02 65 1014.3
20260501201114 62 64 4.0 9.0 0.00 0.02 0.02 66 1014.2
20260501200611 61 64 6.0 8.0 0.00 0.02 0.02 63 1014.4
20260501200109 61 6 3.0 14.0 0.00 0.02 0.02 65 1014.4
20260501195606 61 12 3.0 11.0 0.00 0.02 0.02 64 1014.5
20260501195101 61 43 4.0 9.0 0.00 0.02 0.02 64 1014.8
20260501194557 61 33 4.0 7.0 0.00 0.02 0.02 65 1014.8
20260501194053 61 76 3.0 6.0 0.00 0.02 0.02 63 1014.9
20260501193550 62 68 5.0 9.0 0.00 0.02 0.02 62 1014.7
20260501193049 62 113 3.0 7.0 0.00 0.02 0.02 64 1014.6
20260501192545 62 49 6.0 11.0 0.00 0.02 0.02 62 1014.3
20260501192043 62 68 8.0 11.0 0.00 0.02 0.02 63 1014.3
20260501191534 62 77 7.0 10.0 0.00 0.02 0.02 64 1013.7
20260501191031 61 50 9.0 13.0 0.00 0.02 0.02 64 1013.4
20260501190527 61 32 5.0 15.0 0.00 0.02 0.02 64 1013.0
20260501190022 61 51 12.0 15.0 0.00 0.02 0.02 64 1013.3
20260501185519 61 37 7.0 24.0 0.00 0.02 0.02 65 1013.5
20260501185015 61 44 16.0 21.0 0.00 0.02 0.02 63 1013.7
20260501184511 61 98 6.0 15.0 0.00 0.02 0.02 64 1013.5
20260501184006 61 39 18.0 22.0 0.00 0.02 0.02 64 1013.0
20260501183503 61 51 14.0 15.0 0.00 0.02 0.02 66 1013.7
20260501182959 62 59 9.0 18.0 0.00 0.02 0.02 65 1014.3
20260501182456 62 28 12.0 17.0 0.00 0.02 0.02 64 1014.4
20260501181953 62 34 14.0 17.0 0.00 0.02 0.02 65 1013.9
20260501181450 63 71 9.0 14.0 0.00 0.02 0.02 65 1013.8
20260501180947 62 91 9.0 23.0 0.00 0.02 0.02 65 1013.8
20260501180444 62 46 15.0 22.0 0.00 0.02 0.02 65 1014.0
20260501175940 62 26 8.0 20.0 0.00 0.02 0.02 65 1013.7
20260501175438 62 23 3.0 19.0 0.00 0.02 0.02 68 1013.6
20260501174934 62 41 8.0 22.0 0.00 0.02 0.02 68 1013.9
20260501174432 62 48 14.0 19.0 0.00 0.02 0.02 69 1014.0
20260501173929 62 42 5.0 16.0 0.00 0.02 0.02 70 1014.0
20260501173427 62 62 13.0 18.0 0.00 0.02 0.02 69 1014.1
20260501172922 62 86 8.0 18.0 0.00 0.02 0.02 71 1013.9
20260501172418 62 52 7.0 17.0 0.00 0.02 0.02 72 1014.0
20260501171913 61 75 11.0 19.0 0.00 0.02 0.02 73 1013.8
20260501171410 61 73 9.0 18.0 0.00 0.02 0.02 74 1014.0
20260501170907 61 72 16.0 16.0 0.00 0.02 0.02 73 1014.3
20260501170404 61 79 7.0 15.0 0.00 0.02 0.02 74 1014.0
20260501165901 61 64 9.0 19.0 0.00 0.02 0.02 74 1013.8
20260501165359 61 57 14.0 24.0 0.00 0.02 0.02 75 1014.0
20260501164856 60 50 9.0 15.0 0.00 0.02 0.02 73 1014.1
20260501164354 60 23 11.0 22.0 0.00 0.02 0.02 74 1014.4
20260501163850 60 45 12.0 16.0 0.00 0.02 0.02 75 1014.6
20260501163346 60 63 9.0 17.0 0.00 0.02 0.02 76 1014.8
20260501162843 60 34 10.0 13.0 0.00 0.02 0.02 76 1014.6
20260501162340 59 49 12.0 19.0 0.00 0.02 0.02 76 1014.6
20260501161837 60 44 5.0 13.0 0.00 0.02 0.02 78 1014.4
20260501161334 59 46 8.0 20.0 0.00 0.02 0.02 77 1014.4
20260501160830 59 45 17.0 22.0 0.00 0.02 0.02 76 1014.6
20260501160327 59 40 7.0 16.0 0.00 0.02 0.02 81 1014.5
20260501155825 59 67 7.0 15.0 0.00 0.02 0.02 81 1014.8
20260501155321 59 79 11.0 15.0 0.00 0.02 0.02 81 1014.8
20260501154818 59 57 11.0 13.0 0.00 0.02 0.02 85 1014.6
20260501154315 59 61 8.0 13.0 0.00 0.02 0.02 87 1014.7
20260501153813 59 57 8.0 11.0 0.00 0.02 0.02 89 1014.7
20260501153310 58 69 3.0 11.0 0.00 0.02 0.02 90 1014.7
20260501152806 58 46 6.0 11.0 0.00 0.02 0.02 91 1014.3
20260501152306 58 60 12.0 14.0 0.00 0.02 0.02 91 1014.1
20260501151801 58 64 8.0 12.0 0.00 0.02 0.02 90 1014.0
20260501151256 58 53 7.0 12.0 0.00 0.02 0.02 90 1014.2
20260501150753 58 52 4.0 14.0 0.00 0.02 0.02 90 1014.5
20260501150249 58 21 2.0 10.0 0.00 0.02 0.02 91 1014.8
20260501145745 58 51 5.0 9.0 0.00 0.02 0.02 91 1014.9
20260501145243 58 73 3.0 6.0 0.00 0.02 0.02 92 1014.8
20260501144739 58 82 5.0 13.0 0.00 0.02 0.02 92 1014.1
20260501144236 58 74 6.0 11.0 0.00 0.02 0.02 92 1014.1
20260501143732 58 61 9.0 14.0 0.00 0.02 0.02 93 1014.0
20260501143230 58 60 9.0 13.0 0.00 0.02 0.02 93 1014.2
20260501142727 57 40 4.0 11.0 0.00 0.02 0.02 94 1014.2
20260501142222 57 41 6.0 9.0 0.02 0.02 0.02 94 1014.3
20260501141717 57 22 5.0 11.0 0.02 0.02 0.02 94 1014.3